Cairns, Australia

7:58 AM AEST on December 12, 2017 (GMT +1000)
Cairns International

Weather History for YBCS - June, 2014

Change the Weather History Date:

Wednesday, June 11, 2014

  Actual Average Record
Temperature  
Mean Temperature 71 °F -  
Max Temperature 75 °F 78 °F 85 °F (2016)
Min Temperature 67 °F 63 °F 32 °F (2003)
Cooling Degree Days 6    
Growing Degree Days 21 (Base 50)    
Moisture  
Dew Point 66 °F    
Average Humidity 83    
Maximum Humidity 100    
Minimum Humidity 67    
Precipitation  
Precipitation 0.02 in 0.05 in - ()
Sea Level Pressure  
Sea Level Pressure 29.87 in    
Wind  
Wind Speed 13 mph ()    
Max Wind Speed 22 mph    
Max Gust Speed 33 mph    
Visibility 5.6 miles    
Events Rain    
Averages and records for this station are not official NWS values.
T = Trace of Precipitation, MM = Missing Value Source: Averaged Metar Reports

Daily Weather History Graph

Daily Weather History Graph

Search for Another Location

Airport or City:

Trip Planner

Search our weather history database for the weather conditions in past years. The results will help you decide how hot, cold, wet, or windy it might be!

Date:

Astronomy

Jun. 11, 2014 Rise Set
Actual Time 6:42 AM AEST 5:50 PM AEST
Civil Twilight 6:18 AM AEST 6:14 PM AEST
Nautical Twilight 5:51 AM AEST 6:41 PM AEST
Astronomical Twilight 5:25 AM AEST 7:07 PM AEST
Moon 4:10 PM AEST 4:23 AM AEST
Length of Visible Light 11h 55m
Length of Day
11h 08m
Waxing Gibbous, 94% of the Moon is Illuminated
Jun 11
Waxing Gibbous
Jun 13
Full
Jun 20
Last Quarter
Jun 27
New
Jul 5
First Quarter

Hourly Weather History & Observations

Time (AEST) Temp. Dew Point Humidity Pressure Visibility Wind Dir Wind Speed Gust Speed Precip Events Conditions
12:00 AM 69 °F 62 °F 72% 29.90 in - South 8.1 mph - -  
12:00 AM 69.8 °F 62.6 °F 78% 29.89 in 6.2 mi South 8.1 mph - N/A   Scattered Clouds
12:30 AM 69.8 °F 62.6 °F 78% 29.89 in 6.2 mi SE 12.7 mph - N/A   Mostly Cloudy
1:00 AM 69 °F 65 °F 83% 29.90 in - SSE 9.2 mph - -  
1:00 AM 68.0 °F 64.4 °F 88% 29.89 in 6.2 mi SSE 9.2 mph - N/A Rain Light Rain Showers
1:30 AM 68.0 °F 64.4 °F 88% 29.86 in 6.2 mi SSE 11.5 mph - N/A   Scattered Clouds
2:00 AM 68.0 °F 64.4 °F 88% 29.86 in 5.0 mi SSE 8.1 mph - N/A   Light Drizzle
2:30 AM 68.0 °F 66.2 °F 94% 29.86 in 5.0 mi South 9.2 mph - N/A Rain Light Rain
3:00 AM 69 °F 65 °F 85% 29.85 in - South 8.1 mph - -   Overcast
3:00 AM 69.8 °F 66.2 °F 88% 29.83 in 6.2 mi South 8.1 mph - N/A   Mostly Cloudy
3:30 AM 68.0 °F 66.2 °F 94% 29.83 in 5.0 mi SSE 11.5 mph - N/A Rain Light Rain Showers
4:00 AM 69 °F 66 °F 88% 29.85 in - SSE 13.8 mph - -  
4:00 AM 68.0 °F 66.2 °F 94% 29.83 in 3.7 mi SSE 13.8 mph - N/A Rain Light Rain Showers
4:12 AM 68.0 °F 66.2 °F 94% 29.83 in - SSE 12.7 mph - N/A   Unknown
4:29 AM 69.8 °F 66.2 °F 88% 29.83 in 6.2 mi SSE 12.7 mph - N/A   Mostly Cloudy
4:30 AM 69.8 °F 66.2 °F 88% 29.83 in 6.2 mi SSE 12.7 mph - N/A   Mostly Cloudy
5:00 AM 69.8 °F 66.2 °F 88% 29.83 in 6.2 mi SE 15.0 mph - N/A Rain Light Rain Showers
5:30 AM 69.8 °F 68.0 °F 94% 29.83 in 3.7 mi SE 16.1 mph - N/A Rain Light Rain Showers
6:00 AM 69 °F 67 °F 92% 29.87 in 3 mi SE 17.3 mph - - Rain Light Rain Showers
6:00 AM 68.0 °F 68.0 °F 100% 29.86 in 3.1 mi SE 17.3 mph - N/A Rain Light Rain Showers
6:30 AM 68.0 °F 68.0 °F 100% 29.86 in 3.7 mi SE 12.7 mph - N/A Rain Light Rain Showers
7:00 AM 69 °F 67 °F 89% 29.90 in - SE 15.0 mph - -  
7:00 AM 69.8 °F 66.2 °F 88% 29.89 in 2.5 mi SE 15.0 mph - N/A Rain Light Rain Showers
7:30 AM 68.0 °F 66.2 °F 94% 29.89 in 2.5 mi SE 16.1 mph - N/A Rain Light Rain Showers
8:00 AM 69.8 °F 66.2 °F 88% 29.89 in 6.2 mi SE 16.1 mph - N/A   Mostly Cloudy
8:30 AM 69.8 °F 66.2 °F 88% 29.89 in 3.7 mi SE 18.4 mph - N/A   Mostly Cloudy
8:48 AM 69.8 °F 68.0 °F 94% 29.89 in 6.2 mi SE 13.8 mph - N/A   Mostly Cloudy
9:00 AM 70 °F 67 °F 87% 29.91 in 6 mi SE 15.0 mph - -   Overcast
9:00 AM 69.8 °F 66.2 °F 88% 29.92 in 6.2 mi SE 15.0 mph - N/A   Mostly Cloudy
9:30 AM 69.8 °F 68.0 °F 94% 29.92 in 3.7 mi SE 15.0 mph - N/A Rain Light Rain Showers
9:50 AM 69.8 °F 68.0 °F 94% 29.92 in 2.5 mi SE 12.7 mph - N/A Rain Light Rain Showers
10:00 AM 70 °F 67 °F 88% 29.92 in - SE 12.7 mph - -  
10:00 AM 69.8 °F 68.0 °F 94% 29.92 in 2.5 mi SE 12.7 mph - N/A Rain Light Rain Showers
10:30 AM 69.8 °F 68.0 °F 94% 29.92 in 2.5 mi ESE 16.1 mph - N/A Rain Light Rain Showers
11:00 AM 71.6 °F 68.0 °F 88% 29.89 in 3.7 mi SE 17.3 mph - N/A   Mostly Cloudy
11:15 AM 71.6 °F 68.0 °F 88% 29.89 in 6.2 mi SE 15.0 mph - N/A   Mostly Cloudy
11:30 AM 71.6 °F 68.0 °F 88% 29.89 in 6.2 mi ESE 15.0 mph - N/A   Mostly Cloudy
12:00 PM 73 °F 67 °F 76% 29.88 in 12 mi South 13.8 mph - -   Partly Cloudy
12:00 PM 73.4 °F 68.0 °F 83% 29.89 in 6.2 mi South 13.8 mph - N/A   Mostly Cloudy
12:30 PM 73.4 °F 66.2 °F 78% 29.86 in 6.2 mi East 13.8 mph - N/A   Mostly Cloudy
1:00 PM 74 °F 67 °F 72% 29.87 in - East 15.0 mph - -  
1:00 PM 73.4 °F 66.2 °F 78% 29.86 in 6.2 mi East 15.0 mph - N/A   Mostly Cloudy
1:30 PM 73.4 °F 66.2 °F 78% 29.86 in 6.2 mi East 15.0 mph - N/A   Mostly Cloudy
2:00 PM 73.4 °F 66.2 °F 78% 29.86 in 6.2 mi East 13.8 mph - N/A   Mostly Cloudy
2:30 PM 73.4 °F 66.2 °F 78% 29.86 in 6.2 mi East 16.1 mph - N/A   Mostly Cloudy
3:00 PM 74 °F 67 °F 71% 29.85 in 12 mi East 18.4 mph - -   Mostly Cloudy
3:00 PM 75.2 °F 66.2 °F 73% 29.83 in 6.2 mi East 18.4 mph - N/A   Mostly Cloudy
3:30 PM 73.4 °F 66.2 °F 78% 29.83 in 6.2 mi East 19.6 mph - N/A   Mostly Cloudy
4:00 PM 74 °F 65 °F 67% 29.86 in - ENE 20.7 mph - -  
4:00 PM 73.4 °F 66.2 °F 78% 29.83 in 6.2 mi ENE 20.7 mph - N/A   Mostly Cloudy
4:17 PM 73.4 °F 64.4 °F 73% 29.83 in 6.2 mi ENE 19.6 mph 31.1 mph N/A   Scattered Clouds
4:30 PM 73.4 °F 64.4 °F 73% 29.83 in 6.2 mi NE 21.9 mph 33.4 mph N/A   Scattered Clouds
5:00 PM 73.4 °F 64.4 °F 73% 29.86 in 6.2 mi ENE 19.6 mph - N/A   Mostly Cloudy
5:30 PM 71.6 °F 64.4 °F 78% 29.86 in - North - - N/A   Mostly Cloudy
6:00 PM 72 °F 64 °F 70% 29.86 in - Calm Calm - -   Overcast
6:00 PM 71.6 °F 64.4 °F 78% 29.86 in - North - - N/A   Scattered Clouds
6:30 PM 71.6 °F 64.4 °F 78% 29.86 in - North - - N/A   Mostly Cloudy
7:00 PM 72 °F 65 °F 71% 29.88 in - SSE 19.6 mph - -  
7:00 PM 71.6 °F 64.4 °F 78% 29.86 in 6.2 mi SSE 19.6 mph - N/A   Scattered Clouds
7:30 PM 71.6 °F 64.4 °F 78% 29.86 in 6.2 mi South 17.3 mph 28.8 mph N/A   Scattered Clouds
8:00 PM 71.6 °F 64.4 °F 78% 29.89 in 6.2 mi SSE 18.4 mph - N/A   Mostly Cloudy
8:30 PM 71.6 °F 64.4 °F 78% 29.89 in 6.2 mi SSE 17.3 mph 28.8 mph N/A   Mostly Cloudy
9:00 PM 72 °F 64 °F 71% 29.89 in - SSE 17.3 mph - -   Overcast
9:00 PM 71.6 °F 64.4 °F 78% 29.89 in 6.2 mi SSE 17.3 mph - N/A   Mostly Cloudy
9:30 PM 71.6 °F 64.4 °F 78% 29.89 in 6.2 mi SSE 18.4 mph - N/A   Mostly Cloudy
10:00 PM 71 °F 65 °F 76% 29.89 in - SSE 19.6 mph - -  
10:00 PM 71.6 °F 64.4 °F 78% 29.89 in 6.2 mi SSE 19.6 mph - N/A   Mostly Cloudy
10:30 PM 71.6 °F 64.4 °F 78% 29.89 in 6.2 mi SSE 20.7 mph - N/A   Mostly Cloudy
11:00 PM 71.6 °F 64.4 °F 78% 29.86 in 6.2 mi SSE 16.1 mph - N/A   Mostly Cloudy
11:30 PM 71.6 °F 64.4 °F 78% 29.86 in 6.2 mi SSE 17.3 mph - N/A   Mostly Cloudy